Time,TemperatureF,DewpointF,PressureIn,WindDirection,WindDirectionDegrees,WindSpeedMPH,WindSpeedGustMPH,Humidity,HourlyPrecipIn,Conditions,Clouds,dailyrainin,SoftwareType,DateUTC
2013-01-02 00:09:00,31.5,31.0,30.17,SSW,202,0.0,-999.0,98,-99.99,,,0.00,Acu-Link.com,2013-01-02 08:09:00,
2013-01-02 00:24:00,30.9,30.4,30.17,West,270,0.0,-999.0,98,-99.99,,,0.00,Acu-Link.com,2013-01-02 08:24:00,
2013-01-02 00:39:00,30.7,30.2,30.17,NW,315,0.0,-999.0,98,-99.99,,,0.00,Acu-Link.com,2013-01-02 08:39:00,
2013-01-02 00:54:00,30.9,30.4,30.17,NNW,337,0.0,-999.0,98,-99.99,,,0.00,Acu-Link.com,2013-01-02 08:54:00,
2013-01-02 01:10:00,30.9,30.4,30.17,ENE,67,0.0,-999.0,98,-99.99,,,0.00,Acu-Link.com,2013-01-02 09:10:00,
2013-01-02 01:25:00,30.7,30.2,30.17,South,180,0.0,-999.0,98,-99.99,,,0.00,Acu-Link.com,2013-01-02 09:25:00,
2013-01-02 01:40:00,30.4,29.9,30.17,West,270,0.0,-999.0,98,-99.99,,,0.00,Acu-Link.com,2013-01-02 09:40:00,
2013-01-02 01:55:00,30.4,29.9,30.17,South,180,0.0,-999.0,98,-99.99,,,0.00,Acu-Link.com,2013-01-02 09:55:00,
2013-01-02 02:10:00,30.0,29.5,30.17,East,90,0.0,-999.0,98,-99.99,,,0.00,Acu-Link.com,2013-01-02 10:10:00,
2013-01-02 02:25:00,30.0,29.5,30.16,East,90,0.0,-999.0,98,-99.99,,,0.00,Acu-Link.com,2013-01-02 10:25:00,
2013-01-02 02:40:00,29.5,29.0,30.17,South,180,0.0,-999.0,98,-99.99,,,0.00,Acu-Link.com,2013-01-02 10:40:00,
2013-01-02 02:56:00,29.5,29.0,30.16,South,180,0.0,-999.0,98,-99.99,,,0.00,Acu-Link.com,2013-01-02 10:56:00,
2013-01-02 03:11:00,29.3,28.8,30.15,NNE,22,0.0,-999.0,98,-99.99,,,0.00,Acu-Link.com,2013-01-02 11:11:00,
2013-01-02 03:26:00,29.3,28.8,30.16,SSE,157,0.0,-999.0,98,-99.99,,,0.00,Acu-Link.com,2013-01-02 11:26:00,
2013-01-02 03:41:00,28.9,28.4,30.16,West,270,0.0,-999.0,98,-99.99,,,0.00,Acu-Link.com,2013-01-02 11:41:00,
2013-01-02 03:56:00,28.6,28.1,30.16,NW,315,0.0,-999.0,98,-99.99,,,0.00,Acu-Link.com,2013-01-02 11:56:00,
2013-01-02 04:11:00,28.8,28.3,30.15,East,90,0.0,-999.0,98,-99.99,,,0.00,Acu-Link.com,2013-01-02 12:11:00,
2013-01-02 04:26:00,28.8,28.3,30.15,ESE,112,0.0,-999.0,98,-99.99,,,0.00,Acu-Link.com,2013-01-02 12:26:00,
2013-01-02 04:41:00,28.6,28.1,30.15,West,270,0.0,-999.0,98,-99.99,,,0.00,Acu-Link.com,2013-01-02 12:41:00,
2013-01-02 04:56:00,28.2,27.7,30.14,NNW,337,0.0,-999.0,98,-99.99,,,0.00,Acu-Link.com,2013-01-02 12:56:00,
2013-01-02 05:12:00,28.2,27.7,30.15,ENE,67,0.0,-999.0,98,-99.99,,,0.00,Acu-Link.com,2013-01-02 13:12:00,
2013-01-02 05:27:00,28.4,27.9,30.14,NNW,337,0.0,-999.0,98,-99.99,,,0.00,Acu-Link.com,2013-01-02 13:27:00,
2013-01-02 05:42:00,28.8,28.3,30.14,ENE,67,0.0,-999.0,98,-99.99,,,0.00,Acu-Link.com,2013-01-02 13:42:00,
2013-01-02 05:57:00,28.4,27.9,30.15,ENE,67,0.0,-999.0,98,-99.99,,,0.00,Acu-Link.com,2013-01-02 13:57:00,
2013-01-02 06:12:00,27.9,27.4,30.15,ENE,67,0.0,-999.0,98,-99.99,,,0.00,Acu-Link.com,2013-01-02 14:12:00,
2013-01-02 06:27:00,27.9,27.4,30.14,NW,315,0.0,-999.0,98,-99.99,,,0.00,Acu-Link.com,2013-01-02 14:27:00,
2013-01-02 06:42:00,27.3,26.8,30.15,NW,315,0.0,-999.0,98,-99.99,,,0.00,Acu-Link.com,2013-01-02 14:42:00,
2013-01-02 06:57:00,27.9,27.4,30.15,NW,315,0.0,-999.0,98,-99.99,,,0.00,Acu-Link.com,2013-01-02 14:57:00,
2013-01-02 07:12:00,27.7,27.2,30.15,West,270,0.0,-999.0,98,-99.99,,,0.00,Acu-Link.com,2013-01-02 15:12:00,
2013-01-02 07:28:00,27.9,27.4,30.14,South,180,0.0,-999.0,98,-99.99,,,0.00,Acu-Link.com,2013-01-02 15:28:00,
2013-01-02 07:43:00,28.0,27.5,30.14,South,180,0.0,-999.0,98,-99.99,,,0.00,Acu-Link.com,2013-01-02 15:43:00,
2013-01-02 07:58:00,28.2,27.7,30.15,NW,315,0.0,-999.0,98,-99.99,,,0.00,Acu-Link.com,2013-01-02 15:58:00,
2013-01-02 08:13:00,29.1,28.6,30.16,WSW,247,0.0,-999.0,98,-99.99,,,0.00,Acu-Link.com,2013-01-02 16:13:00,
2013-01-02 08:28:00,30.0,29.5,30.16,WSW,247,0.0,-999.0,98,-99.99,,,0.00,Acu-Link.com,2013-01-02 16:28:00,
2013-01-02 08:43:00,31.1,30.6,30.17,NW,315,0.0,-999.0,98,-99.99,,,0.00,Acu-Link.com,2013-01-02 16:43:00,
2013-01-02 08:58:00,32.4,31.9,30.17,NW,315,0.0,-999.0,98,-99.99,,,0.00,Acu-Link.com,2013-01-02 16:58:00,
2013-01-02 09:13:00,33.6,33.1,30.17,SW,225,0.0,-999.0,98,-99.99,,,0.00,Acu-Link.com,2013-01-02 17:13:00,
2013-01-02 09:28:00,34.9,34.4,30.17,WSW,247,0.0,-999.0,98,-99.99,,,0.00,Acu-Link.com,2013-01-02 17:28:00,
2013-01-02 09:44:00,36.3,35.8,30.16,West,270,0.0,-999.0,98,-99.99,,,0.00,Acu-Link.com,2013-01-02 17:44:00,
2013-01-02 09:59:00,37.0,36.5,30.17,NNE,22,0.0,-999.0,98,-99.99,,,0.00,Acu-Link.com,2013-01-02 17:59:00,
2013-01-02 10:14:00,38.7,38.2,30.17,ESE,112,0.0,-999.0,98,-99.99,,,0.00,Acu-Link.com,2013-01-02 18:14:00,
2013-01-02 10:29:00,39.9,39.4,30.17,SW,225,0.0,-999.0,98,-99.99,,,0.00,Acu-Link.com,2013-01-02 18:29:00,
2013-01-02 10:44:00,42.6,41.8,30.17,SSE,157,0.0,-999.0,97,-99.99,,,0.00,Acu-Link.com,2013-01-02 18:44:00,
2013-01-02 10:59:00,44.6,41.6,30.17,ESE,112,2.7,-999.0,89,-99.99,,,0.00,Acu-Link.com,2013-01-02 18:59:00,
2013-01-02 11:14:00,49.6,43.0,30.16,ESE,112,0.0,-999.0,78,-99.99,,,0.00,Acu-Link.com,2013-01-02 19:14:00,
2013-01-02 11:29:00,49.6,42.4,30.14,West,270,1.7,-999.0,76,-99.99,,,0.00,Acu-Link.com,2013-01-02 19:29:00,
2013-01-02 11:44:00,49.6,42.7,30.14,ESE,112,2.2,-999.0,77,-99.99,,,0.00,Acu-Link.com,2013-01-02 19:44:00,
2013-01-02 12:00:00,49.8,42.5,30.13,NNW,337,2.2,-999.0,76,-99.99,,,0.00,Acu-Link.com,2013-01-02 20:00:00,
2013-01-02 12:15:00,49.5,41.9,30.13,NNE,22,1.7,-999.0,75,-99.99,,,0.00,Acu-Link.com,2013-01-02 20:15:00,
2013-01-02 12:30:00,49.8,42.5,30.13,South,180,3.2,-999.0,76,-99.99,,,0.00,Acu-Link.com,2013-01-02 20:30:00,
2013-01-02 12:45:00,50.0,42.4,30.12,NNW,337,1.7,-999.0,75,-99.99,,,0.00,Acu-Link.com,2013-01-02 20:45:00,
2013-01-02 13:00:00,50.4,42.1,30.11,North,0,2.2,-999.0,73,-99.99,,,0.00,Acu-Link.com,2013-01-02 21:00:00,
2013-01-02 13:15:00,49.8,42.2,30.10,WNW,292,1.7,-999.0,75,-99.99,,,0.00,Acu-Link.com,2013-01-02 21:15:00,
2013-01-02 13:30:00,49.8,42.2,30.09,ENE,67,1.7,-999.0,75,-99.99,,,0.00,Acu-Link.com,2013-01-02 21:30:00,
2013-01-02 13:45:00,49.8,42.2,30.09,SSE,157,0.0,-999.0,75,-99.99,,,0.00,Acu-Link.com,2013-01-02 21:45:00,
2013-01-02 14:00:00,49.6,42.0,30.09,South,180,1.1,-999.0,75,-99.99,,,0.00,Acu-Link.com,2013-01-02 22:00:00,
2013-01-02 14:15:00,50.2,42.6,30.09,NE,45,3.2,-999.0,75,-99.99,,,0.00,Acu-Link.com,2013-01-02 22:15:00,
2013-01-02 14:31:00,50.5,42.9,30.09,ESE,112,2.2,-999.0,75,-99.99,,,0.00,Acu-Link.com,2013-01-02 22:31:00,
2013-01-02 14:46:00,51.1,43.8,30.08,WNW,292,0.0,-999.0,76,-99.99,,,0.00,Acu-Link.com,2013-01-02 22:46:00,
2013-01-02 15:01:00,51.6,43.2,30.08,NE,45,1.1,-999.0,73,-99.99,,,0.00,Acu-Link.com,2013-01-02 23:01:00,
2013-01-02 15:16:00,51.1,43.5,30.08,WNW,292,3.2,-999.0,75,-99.99,,,0.00,Acu-Link.com,2013-01-02 23:16:00,
2013-01-02 15:31:00,50.4,42.8,30.08,SSE,157,1.7,-999.0,75,-99.99,,,0.00,Acu-Link.com,2013-01-02 23:31:00,
2013-01-02 15:46:00,49.8,42.5,30.07,SSE,157,1.1,-999.0,76,-99.99,,,0.00,Acu-Link.com,2013-01-02 23:46:00,
2013-01-02 16:02:00,49.1,42.5,30.07,SE,135,0.0,-999.0,78,-99.99,,,0.00,Acu-Link.com,2013-01-03 00:02:00,
2013-01-02 16:17:00,48.2,42.0,30.07,North,0,0.0,-999.0,79,-99.99,,,0.00,Acu-Link.com,2013-01-03 00:17:00,
2013-01-02 16:47:00,46.8,41.3,30.06,North,0,0.0,-999.0,81,-99.99,,,0.00,Acu-Link.com,2013-01-03 00:47:00,
2013-01-02 17:02:00,45.9,41.0,30.05,ESE,112,0.0,-999.0,83,-99.99,,,0.00,Acu-Link.com,2013-01-03 01:02:00,
2013-01-02 17:17:00,45.0,40.5,30.06,ENE,67,0.0,-999.0,84,-99.99,,,0.00,Acu-Link.com,2013-01-03 01:17:00,
2013-01-02 17:32:00,44.1,40.2,30.06,SE,135,0.0,-999.0,86,-99.99,,,0.00,Acu-Link.com,2013-01-03 01:32:00,
2013-01-02 17:47:00,43.0,39.1,30.06,South,180,0.0,-999.0,86,-99.99,,,0.00,Acu-Link.com,2013-01-03 01:47:00,
2013-01-02 18:02:00,41.9,38.3,30.06,NNW,337,0.0,-999.0,87,-99.99,,,0.00,Acu-Link.com,2013-01-03 02:02:00,
2013-01-02 18:18:00,41.0,38.0,30.06,SSE,157,0.0,-999.0,89,-99.99,,,0.00,Acu-Link.com,2013-01-03 02:18:00,
2013-01-02 18:33:00,40.5,37.5,30.07,NW,315,0.0,-999.0,89,-99.99,,,0.00,Acu-Link.com,2013-01-03 02:33:00,
2013-01-02 18:48:00,39.6,36.9,30.07,NNW,337,0.0,-999.0,90,-99.99,,,0.00,Acu-Link.com,2013-01-03 02:48:00,
2013-01-02 19:03:00,38.8,36.4,30.07,SSE,157,0.0,-999.0,91,-99.99,,,0.00,Acu-Link.com,2013-01-03 03:03:00,
2013-01-02 19:18:00,37.9,36.1,30.07,SSE,157,0.0,-999.0,93,-99.99,,,0.00,Acu-Link.com,2013-01-03 03:18:00,
2013-01-02 19:33:00,37.4,35.8,30.07,South,180,0.0,-999.0,94,-99.99,,,0.00,Acu-Link.com,2013-01-03 03:33:00,
2013-01-02 19:48:00,37.0,36.0,30.06,South,180,0.0,-999.0,96,-99.99,,,0.00,Acu-Link.com,2013-01-03 03:48:00,
2013-01-02 20:03:00,36.3,35.3,30.07,ENE,67,0.0,-999.0,96,-99.99,,,0.00,Acu-Link.com,2013-01-03 04:03:00,
2013-01-02 20:18:00,35.6,34.6,30.07,NW,315,0.0,-999.0,96,-99.99,,,0.00,Acu-Link.com,2013-01-03 04:18:00,
2013-01-02 20:34:00,35.4,34.4,30.07,West,270,0.0,-999.0,96,-99.99,,,0.00,Acu-Link.com,2013-01-03 04:34:00,
2013-01-02 20:49:00,35.1,34.3,30.07,West,270,0.0,-999.0,97,-99.99,,,0.00,Acu-Link.com,2013-01-03 04:49:00,
2013-01-02 21:04:00,34.7,33.9,30.08,West,270,0.0,-999.0,97,-99.99,,,0.00,Acu-Link.com,2013-01-03 05:04:00,
2013-01-02 21:19:00,34.3,33.5,30.08,West,270,0.0,-999.0,97,-99.99,,,0.00,Acu-Link.com,2013-01-03 05:19:00,
2013-01-02 21:34:00,34.2,33.7,30.09,South,180,0.0,-999.0,98,-99.99,,,0.00,Acu-Link.com,2013-01-03 05:34:00,
2013-01-02 21:49:00,33.8,33.3,30.09,East,90,0.0,-999.0,98,-99.99,,,0.00,Acu-Link.com,2013-01-03 05:49:00,
2013-01-02 22:04:00,33.3,32.8,30.08,West,270,0.0,-999.0,98,-99.99,,,0.00,Acu-Link.com,2013-01-03 06:04:00,
2013-01-02 22:19:00,32.7,32.2,30.10,West,270,0.0,-999.0,98,-99.99,,,0.00,Acu-Link.com,2013-01-03 06:19:00,
2013-01-02 22:35:00,32.4,31.9,30.10,West,270,0.0,-999.0,98,-99.99,,,0.00,Acu-Link.com,2013-01-03 06:35:00,
2013-01-02 22:50:00,32.2,31.7,30.10,West,270,0.0,-999.0,98,-99.99,,,0.00,Acu-Link.com,2013-01-03 06:50:00,
2013-01-02 23:05:00,31.8,31.3,30.10,West,270,0.0,-999.0,98,-99.99,,,0.00,Acu-Link.com,2013-01-03 07:05:00,
2013-01-02 23:20:00,32.5,32.0,30.10,NNE,22,0.0,-999.0,98,-99.99,,,0.00,Acu-Link.com,2013-01-03 07:20:00,
2013-01-02 23:35:00,32.4,31.9,30.09,South,180,0.0,-999.0,98,-99.99,,,0.00,Acu-Link.com,2013-01-03 07:35:00,
2013-01-02 23:51:00,31.8,31.3,30.09,NE,45,0.0,-999.0,98,-99.99,,,0.00,Acu-Link.com,2013-01-03 07:51:00,